User: anonymous   Login
Location: Caltech
(34.1382°N, 118.1253°W)
Time: 12:23:36
(UTC-08:00)
Language:

Oscar 16 - Orbit

View from above orbital plane
View from above orbital plane
View from above satellite
View from above satellite

Ground track
Ground track

The orbit data is extracted from the following two-line orbital elements,

1 20439U 90005D   15029.07481576  .00000131  00000-0  64236-4 0  2293
2 20439 098.5303 327.4038 0010474 206.0223 218.8056 14.32479105306821
Epoch (UTC): 29 January 2015 01:47:44
Eccentricity: 0.0010474
inclination: 98.5303°
perigee height: 776 km
apogee height: 791 km
right ascension of ascending node: 327.4038°
argument of perigee: 206.0223°
revolutions per day: 14.32479105
mean anomaly at epoch: 218.8056°
orbit number at epoch: 30682

The dashed part of the orbit path shows where the satellite is in the earth's shadow,  

DLR